Location: C�mpuri de-Sus
(45.9500°N, 22.5500°E)
Time: 08:13:21
(UTC+00:00)

Cosmos 839 Rocket - Pass Details

Date: 01 December 2023
Orbit: 960 x 2092 km, 65.9° (Epoch: 04 March)

Event Time Altitude Azimuth Distance (km) Brightness Sun altitude
Exits shadow 01:35:39 28° 167° (SSE) 3,271 6.6 -43.4°
Maximum altitude 01:42:07 51° 110° (ESE) 2,512 6.1 -42.3°
Drops below altitude 10° 01:53:29 10° 40° (NE) 4,484 7.9 -40.4°
Sets 01:56:53 0° 36° (NE) 5,405 8.4 -39.8°
